Knoxville, TN

8:44 PM EDT on October 17, 2017 (GMT -0400)
McGhee Tyson

Weather History for KTYS - November, 2014

Change the Weather History Date:

Thursday, November 20, 2014

  Actual Average Record
Temperature  
Mean Temperature 44 °F 48 °F  
Max Temperature 53 °F 59 °F 80 °F (1906)
Min Temperature 35 °F 38 °F 13 °F (1914)
Degree Days  
Heating Degree Days 21 17  
Month to date heating degree days 456 275  
Since 1 July heating degree days 634 494  
Cooling Degree Days 0 0  
Month to date cooling degree days 0 0  
Year to date cooling degree days 1486 1523  
Moisture  
Dew Point 24 °F    
Average Humidity 46    
Maximum Humidity 59    
Minimum Humidity 33    
Precipitation  
Precipitation 0.00 in 0.15 in 0.95 in (1983)
Month to date precipitation 1.52 2.50  
Year to date precipitation 36.85 41.85  
Snow  
Snow 0.00 in 0.00 in - ()
Month to date snowfall T 0.0  
Since 1 July snowfall T 0.0  
Since 1 September snowfall T 0.0  
Snow Depth 0.00 in    
Sea Level Pressure  
Sea Level Pressure 30.18 in    
Wind  
Wind Speed 12 mph (WSW)    
Max Wind Speed 23 mph    
Max Gust Speed 29 mph    
Visibility 10 miles    
Events      
T = Trace of Precipitation, MM = Missing Value Source: NWS Daily Summary

Daily Weather History Graph

Daily Weather History Graph

Search for Another Location

Airport or City:

Trip Planner

Search our weather history database for the weather conditions in past years. The results will help you decide how hot, cold, wet, or windy it might be!

Date:

Astronomy

Nov. 20, 2014 Rise Set
Actual Time 7:17 AM EST 5:25 PM EST
Civil Twilight 6:49 AM EST 5:53 PM EST
Nautical Twilight 6:18 AM EST 6:24 PM EST
Astronomical Twilight 5:47 AM EST 6:54 PM EST
Moon 5:15 AM EST (11/20) 4:25 PM EST (11/20)
Length of Visible Light 11h 03m
Length of Day
10h 08m
Waning Crescent, 4% of the Moon is Illuminated
Nov 20
Waning Crescent
Nov 22
New
Nov 29
First Quarter
Dec 6
Full
Dec 14
Last Quarter

Hourly Weather History & Observations

Time (EST) Temp. Windchill Dew Point Humidity Pressure Visibility Wind Dir Wind Speed Gust Speed Precip Events Conditions
12:53 AM 41.0 °F 32.8 °F 21.9 °F 47% 30.18 in 10.0 mi SW 16.1 mph - N/A   Overcast
1:53 AM 42.1 °F 33.6 °F 21.9 °F 45% 30.17 in 10.0 mi SW 18.4 mph - N/A   Overcast
2:53 AM 42.1 °F 33.1 °F 21.9 °F 45% 30.16 in 10.0 mi SW 20.7 mph - N/A   Overcast
3:53 AM 42.1 °F 34.5 °F 23.0 °F 47% 30.15 in 10.0 mi SW 15.0 mph - N/A   Overcast
4:53 AM 39.9 °F 32.9 °F 23.0 °F 51% 30.15 in 10.0 mi WSW 11.5 mph - N/A   Mostly Cloudy
5:53 AM 39.0 °F 32.3 °F 23.0 °F 53% 30.16 in 10.0 mi WSW 10.4 mph - N/A   Clear
6:53 AM 37.0 °F 31.0 °F 21.9 °F 54% 30.17 in 10.0 mi WSW 8.1 mph - N/A   Partly Cloudy
7:53 AM 37.9 °F 30.0 °F 24.1 °F 57% 30.18 in 10.0 mi SW 12.7 mph - N/A   Partly Cloudy
8:53 AM 42.1 °F 36.1 °F 26.1 °F 53% 30.19 in 10.0 mi SW 10.4 mph - N/A   Partly Cloudy
9:53 AM 45.0 °F 38.5 °F 28.0 °F 52% 30.20 in 10.0 mi SW 13.8 mph - N/A   Partly Cloudy
10:53 AM 48.0 °F - 28.9 °F 48% 30.20 in 10.0 mi West 15.0 mph - N/A   Partly Cloudy
11:53 AM 50.0 °F - 30.0 °F 46% 30.19 in 10.0 mi SW 13.8 mph 21.9 mph N/A   Partly Cloudy
12:53 PM 50.0 °F - 28.9 °F 44% 30.16 in 10.0 mi WSW 17.3 mph - N/A   Partly Cloudy
1:53 PM 51.1 °F - 28.9 °F 43% 30.14 in 10.0 mi WSW 13.8 mph - N/A   Partly Cloudy
2:53 PM 52.0 °F - 28.0 °F 40% 30.13 in 10.0 mi West 15.0 mph - N/A   Partly Cloudy
3:53 PM 52.0 °F - 25.0 °F 35% 30.13 in 10.0 mi West 18.4 mph - N/A   Clear
4:53 PM 50.0 °F - 23.0 °F 35% 30.15 in 10.0 mi West 16.1 mph - N/A   Clear
5:53 PM 46.9 °F - 21.9 °F 37% 30.17 in 10.0 mi WSW 12.7 mph - N/A   Clear
6:53 PM 43.0 °F 37.7 °F 23.0 °F 45% 30.19 in 10.0 mi WSW 9.2 mph - N/A   Clear
7:53 PM 42.1 °F 37.1 °F 21.9 °F 45% 30.21 in 10.0 mi WSW 8.1 mph - N/A   Clear
8:53 PM 39.0 °F 36.8 °F 23.0 °F 53% 30.24 in 10.0 mi SSW 3.5 mph - N/A   Clear
9:53 PM 39.0 °F 34.8 °F 23.0 °F 53% 30.25 in 10.0 mi WSW 5.8 mph - N/A   Clear
10:53 PM 36.0 °F 31.1 °F 23.0 °F 59% 30.27 in 10.0 mi SSW 5.8 mph - N/A   Clear
11:53 PM 35.1 °F 29.3 °F 24.1 °F 64% 30.28 in 10.0 mi WSW 6.9 mph - N/A   Clear